Tracking 32954 objects as of 19-Jan-2026
HD Live streaming from Space Station
objects crossing your sky now

ERS 2 DEB

Track ERS 2 DEB now!
10-day predictions


NORAD ID: 35393
Int'l Code: 1995-021G
Perigee: 711.6 km
Apogee: 719.2 km
Inclination: 98.5 °
Period: 98.9 minutes
Semi major axis: 7086 km
RCS: 0.0072 m2 (small)
Launch date: April 21, 1995
Source: European Space Agency (ESA)
Launch site: FRENCH GUIANA (FRGUI)

Note: This is SATELLITE DEBRIS
Your satellite tracking list
Your tracking list is empty




NASA's NSSDC Master Catalog

Two Line Element Set (TLE):
1 35393U 95021G   26019.18462264  .00003146  00000-0  73589-3 0  9990
2 35393  98.4967 356.2334 0005355  43.5511 329.1733 14.55336626180537
Source of the keplerian elements: AFSPC